THOR ABLESTAR DEB, 545

Orbit data source: Space-Track

THOR ABLESTAR DEB, 545 is space debris in LEO originally from a launch on Thu, 29 Jun 1961 UTC launched from the Air Force Eastern Test Range (AFETR). Debris objects in space refer to the collection of defunct objects orbiting the Earth. Examples of debris include non-operational satellites, rocket bodies, and fragments generated from explosions, collisions, or faulty payload assembly.

Loading next visibility...
Identifier
545, 1961-015GE
Orbit
LEO
Country
Flag of USUS
Related business
Manufacturer
Unknown
Mission
Spacecraft
Bus & Motor
Unknown
Mass
Unknown
Launch date (UTC)
1961-06-29 (65 years ago)
Launch vehicle
Unknown
Launch site
Air Force Eastern Test Range (AFETR)
Object type
Payload
Rocket body
Debris
Shape & HBR
Unknown shape, 0.1 m
Radar Cross Section
Small (<0.1 m²)

Expand to show TLE details & history
Last TLE update: 10 hours ago

TLE from 10 hours ago
0 THOR ABLESTAR DEB
1   545U 61015GE  26062.39081139  .00000397  00000-0  48068-3 0  9995
2   545  67.2322 160.1229 0152937 128.6987 232.7878 13.71008854215784
Epoch: 2026-03-03T09:22Z
TLE epoch observation values (Epoch: 2026-03-03T09:22:46.104Z)
Latitude
0.00002°
Longitude
-141.73974°
Altitude
1,067.332 km
Speed
7.284 km/s
True Right ascension
10h 40m 29s
True Declination
0° 00' 00"
Sunlit
Object was in full shadow at epoch
Visualization orbit readout
Latitude
Unknown
Longitude
Unknown
Altitude
Unknown
Speed
Unknown
Apparent Right ascension
Unknown
Apparent Declination
Unknown
Sunlit
N/A
Visualization observer readout
Local Sidereal Time
22:59:42
Azimuth
Unknown
Elevation
Unknown
Doppler factor
Unknown
Orbital elements
Apogee altitude
1,107.063 km
Perigee altitude
881.559 km
Semi-major axis
7,372.448 km
Eccentricity
0.01529
Inclination
67.2322°
RAAN
160.1229°
Arg. of periapsis
128.6987°
True anomaly
231.40818°
Mean anomaly
232.7878°
Eccentric anomaly
232.09639°
Mean motion
3.42867 °/min
Orbital period
105 mins
BSTAR
0.00048068
Loading maneuver chart data...
Computing Atmospheric mass density...

Documentation

Showing up to 5 results
|